World > North America > United States > Mississippi > Wardwell

Hourly Wardwell, MS Regional Weather

Feedback E-mail the Weather

Quick WX

Wardwell, MS Weather Maps

°F °C°F °C
Wardwell Weather Map
UTC Time: 8/10/2022, 01:35
Your Time:

Wardwell, MS Regional Weather

Expires:202208100200;;763828
ASUS44 KJAN 100110
RWRMS 

MISSISSIPPI HOURLY WEATHER ROUNDUP
NATIONAL WEATHER SERVICE JACKSON MS
800 PM CDT TUE AUG 09 2022

NOTE: "FAIR: INDICATES FEW OR NO CLOUDS BELOW 12,000 FEET WITH NO
SIGNIFICANT WEATHER AND/OR OBSTRUCTIONS TO VISIBILITY.


MSZ003>006-009-014>017-022>024-029>033-037>039-100200-
NORTHEAST MISSISSIPPI
  
CITY           SKY/WX    TMP DP  RH WIND       PRES   REMARKS
ABERDEEN       MOCLDY    79  73  83 CALM      30.11R                  
COLUMBUS AFB   MOCLDY    76  69  79 N5        30.05R                  
CORINTH        TSTM      72  70  94 S6        30.09F                  
GOLDN TRIANGLE LGT RAIN  72  71  97 CALM      30.09R                  
TUPELO         CLOUDY    81  74  79 CALM      30.10R                  
$$


SKY/WX - Weather  TMP - Temperature  DP - Dew Point  RH - Humidity
WIND - Wind Direction/Speed PRES - Barometric Pressure VSB - Visibility
WCI - Wind Chill Index E13G22 Wind - East Wind 13 mph/Gusts of 22 mph

Trending Headlines

Wardwell Radar Loop



Wardwell Quick Facts


National Two Day Weather Forecast


E-mail the Wardwell Weather Forecast

Voice your opinion or tell us about page issues...